Weather History for KBOW - September, 2014

Change the Weather History Date:

Thursday, September 18, 2014

  Actual Average Record
Temperature  
Mean Temperature 80 °F -  
Max Temperature 89 °F 90 °F 97 °F (1933)
Min Temperature 71 °F 71 °F 64 °F (1981)
Cooling Degree Days 15    
Growing Degree Days 30 (Base 50)    
Moisture  
Dew Point 70 °F    
Average Humidity 70    
Maximum Humidity 100    
Minimum Humidity 46    
Precipitation  
Precipitation 0.00 in - - ()
Sea Level Pressure  
Sea Level Pressure 29.92 in    
Wind  
Wind Speed 2 mph (ENE)    
Max Wind Speed 9 mph    
Max Gust Speed -    
Visibility 6 miles    
Events Fog    
Averages and records for this station are not official NWS values.
T = Trace of Precipitation, MM = Missing Value Source: NWS Daily Summary

Daily Weather History Graph

Daily Weather History Graph

Search for Another Location

Airport or City:

Trip Planner

Search our weather history database for the weather conditions in past years. The results will help you decide how hot, cold, wet, or windy it might be!

Date:

Astronomy

Sep. 18, 2014 Rise Set
Actual Time 7:13 AM EDT 7:28 PM EDT
Civil Twilight 6:50 AM EDT 7:51 PM EDT
Nautical Twilight 6:22 AM EDT 8:19 PM EDT
Astronomical Twilight 5:55 AM EDT 8:46 PM EDT
Moon 2:24 AM EDT (9/18) 4:00 PM EDT (9/18)
Length of Visible Light 13h 01m
Length of Day
12h 14m
Waning Crescent, 26% of the Moon is Illuminated
Sep 18
Waning Crescent
Sep 24
New
Oct 1
First Quarter
Oct 8
Full
Oct 15
Last Quarter

Hourly Weather History & Observations

Time (EDT) Temp. Heat Index Dew Point Humidity Pressure Visibility Wind Dir Wind Speed Gust Speed Precip Events Conditions
12:15 AM 71.6 °F - - N/A% 29.94 in 5.0 mi Calm Calm - N/A   Haze
12:35 AM 71.6 °F - - N/A% 29.95 in 0.2 mi Calm Calm - N/A Fog Fog
12:55 AM 71.6 °F - - N/A% 29.94 in 0.2 mi Calm Calm - N/A Fog Fog
1:35 AM 71.6 °F - - N/A% 29.93 in 0.2 mi Calm Calm - N/A Fog Fog
1:55 AM 71.6 °F - - N/A% 29.92 in 0.2 mi Calm Calm - N/A Fog Fog
2:15 AM 71.6 °F - - N/A% 29.92 in 0.2 mi Calm Calm - N/A Fog Fog
2:35 AM 71.6 °F - - N/A% 29.92 in 0.2 mi Calm Calm - N/A Fog Fog
2:55 AM 71.6 °F - - N/A% 29.92 in 0.2 mi Calm Calm - N/A Fog Fog
3:15 AM 71.6 °F - - N/A% 29.91 in 0.2 mi Calm Calm - N/A Fog Fog
3:35 AM 71.6 °F - - N/A% 29.91 in 0.2 mi Calm Calm - N/A Fog Fog
3:55 AM 71.6 °F - - N/A% 29.91 in 0.2 mi South 3.5 mph - N/A Fog Fog
4:15 AM 71.6 °F - - N/A% 29.90 in 0.5 mi Calm Calm - N/A Fog Fog
4:35 AM 71.6 °F - - N/A% 29.90 in 0.2 mi Calm Calm - N/A Fog Fog
5:15 AM 71.6 °F - - N/A% 29.91 in 0.5 mi Calm Calm - N/A Fog Fog
5:35 AM 71.6 °F - - N/A% 29.90 in 0.2 mi Calm Calm - N/A Fog Fog
5:55 AM 71.6 °F - - N/A% 29.91 in 0.2 mi Calm Calm - N/A Fog Fog
6:15 AM 71.6 °F - - N/A% 29.92 in 0.2 mi Calm Calm - N/A Fog Fog
6:35 AM 71.6 °F - - N/A% 29.92 in 0.2 mi Calm Calm - N/A Fog Fog
6:55 AM 71.6 °F - - N/A% 29.93 in 0.2 mi Calm Calm - N/A Fog Fog
7:15 AM 71.6 °F - - N/A% 29.93 in 0.2 mi Calm Calm - N/A Fog Fog
7:47 AM 71.6 °F - - N/A% 29.94 in 0.2 mi Calm Calm - N/A Fog Fog
8:47 AM 73.4 °F - - N/A% 29.95 in 0.2 mi Calm Calm - N/A Fog Fog
9:47 AM 75.2 °F - - N/A% 29.96 in 10.0 mi ENE 3.5 mph - N/A   Mostly Cloudy
10:50 AM 80.6 °F 85.4 °F 73.4 °F 79% 29.97 in 10.0 mi Variable 3.5 mph - N/A   Mostly Cloudy
11:47 AM 82.4 °F 87.2 °F 71.6 °F 70% 29.97 in 10.0 mi East 4.6 mph - N/A   Scattered Clouds
12:50 PM 84.2 °F 87.3 °F 68.0 °F 58% 29.95 in 10.0 mi Variable 4.6 mph - N/A   Mostly Cloudy
1:47 PM 87.8 °F 92.6 °F 69.8 °F 55% 29.93 in 10.0 mi ENE 5.8 mph - N/A   Mostly Cloudy
2:47 PM 87.8 °F 92.6 °F 69.8 °F 55% 29.91 in 10.0 mi North 3.5 mph - N/A   Mostly Cloudy
3:50 PM 87.8 °F 90.4 °F 66.2 °F 49% 29.89 in 10.0 mi ENE 3.5 mph - N/A   Scattered Clouds
4:50 PM 89.6 °F 92.2 °F 66.2 °F 46% 29.88 in 10.0 mi ENE 5.8 mph - N/A   Scattered Clouds
5:35 PM 89.6 °F 92.2 °F 66.2 °F 46% 29.88 in 10.0 mi ENE 6.9 mph - N/A   Partly Cloudy
5:55 PM 87.8 °F 90.4 °F 66.2 °F 49% 29.88 in 10.0 mi ESE 3.5 mph - N/A   Partly Cloudy
6:15 PM 87.8 °F 91.4 °F 68.0 °F 52% 29.88 in 10.0 mi NE 4.6 mph - N/A   Clear
6:35 PM 87.8 °F 91.4 °F 68.0 °F 52% 29.88 in 10.0 mi NE 3.5 mph - N/A   Clear
6:55 PM 86.0 °F 89.4 °F 68.0 °F 55% 29.88 in 10.0 mi Calm Calm - N/A   Clear
7:15 PM 84.2 °F 88.4 °F 69.8 °F 62% 29.89 in 10.0 mi Calm Calm - N/A   Clear
7:35 PM 80.6 °F 85.4 °F 73.4 °F 79% 29.89 in 10.0 mi Calm Calm - N/A   Clear
7:55 PM 78.8 °F - 73.4 °F 83% 29.89 in 10.0 mi ENE 3.5 mph - N/A   Clear
8:15 PM 78.8 °F - 71.6 °F 78% 29.90 in 10.0 mi East 3.5 mph - N/A   Partly Cloudy
8:35 PM 80.6 °F 84.6 °F 71.6 °F 74% 29.92 in 10.0 mi ENE 6.9 mph - N/A   Mostly Cloudy
8:55 PM 78.8 °F - 71.6 °F 78% 29.93 in 10.0 mi ENE 6.9 mph - N/A   Mostly Cloudy
9:15 PM 78.8 °F - 71.6 °F 78% 29.94 in 10.0 mi ENE 6.9 mph - N/A   Clear
9:35 PM 78.8 °F - 71.6 °F 78% 29.94 in 10.0 mi ENE 4.6 mph - N/A   Clear
9:55 PM 78.8 °F - 69.8 °F 74% 29.96 in 10.0 mi North 8.1 mph - N/A   Clear
10:15 PM 77.0 °F - 69.8 °F 78% 29.96 in 10.0 mi NNE 9.2 mph - N/A   Clear
10:35 PM 77.0 °F - 71.6 °F 83% 29.96 in 10.0 mi NNE 5.8 mph - N/A   Clear
10:55 PM 77.0 °F - 71.6 °F 83% 29.97 in 10.0 mi North 4.6 mph - N/A   Clear
11:15 PM 75.2 °F - 73.4 °F 94% 29.96 in 10.0 mi North 4.6 mph - N/A   Partly Cloudy
11:35 PM 75.2 °F - 75.2 °F 100% 29.96 in 10.0 mi Calm Calm - N/A   Clear
11:55 PM 75.2 °F - 75.2 °F 100% 29.96 in 10.0 mi Calm Calm - N/A   Clear